ARIANE 2 DEB, 27030

Orbit data source: Space-Track

ARIANE 2 DEB, 27030 is space debris in HEO originally from a launch on Fri, 27 Jan 1989 UTC launched from the French Guiana (FRGUI). Debris objects in space refer to the collection of defunct objects orbiting the Earth. Examples of debris include non-operational satellites, rocket bodies, and fragments generated from explosions, collisions, or faulty payload assembly.

Loading next visibility...
Identifier
27030, 1989-006K
Orbit
HEO
Country
Flag of FRFR
Related business
Manufacturer
EADS/LV
Mission
Spacecraft
Bus & Motor
Unknown
Mass
Unknown
Launch date (UTC)
1989-01-27 (37 years ago)
Launch vehicle
Unknown
Launch site
French Guiana (FRGUI)
Object type
Payload
Rocket body
Debris
Shape & HBR
Unknown shape, 0.4 m
Radar Cross Section
Medium (>0.1 m² and <1 m²)

Expand to show TLE details & history
Last TLE update: 1 week ago

TLE from 1 week ago
0 ARIANE 2 DEB
1 27030U 89006K   26165.99326619  .00000299  00000-0  22588-2 0  9997
2 27030   8.6392 319.5934 7108736 308.6707   6.7629  2.37488417209925
Epoch: 2026-06-14T23:50Z
TLE epoch observation values (Epoch: 2026-06-14T23:50:18.198Z)
Latitude
-0.00073°
Longitude
58.64708°
Altitude
1,717.48 km
Speed
9.037 km/s
True Right ascension
21h 18m 02s
True Declination
0° 00' 03"
Sunlit
Object was in daylight at epoch
Visualization orbit readout
Latitude
Unknown
Longitude
Unknown
Altitude
Unknown
Speed
Unknown
Apparent Right ascension
Unknown
Apparent Declination
Unknown
Sunlit
N/A
Visualization observer readout
Local Sidereal Time
05:36:26
Azimuth
Unknown
Elevation
Unknown
Doppler factor
Unknown
Orbital elements
Apogee altitude
34,230.593 km
Perigee altitude
484.472 km
Semi-major axis
23,735.669 km
Eccentricity
0.71087
Inclination
8.6392°
RAAN
319.5934°
Arg. of periapsis
308.6707°
True anomaly
50.7385°
Mean anomaly
6.7629°
Eccentric anomaly
22.06055°
Mean motion
0.59353 °/min
Orbital period
606.54 mins
BSTAR
0.0022588
Loading maneuver chart data...
Computing Atmospheric mass density...
Loading historical data...
Loading historical data...
Loading historical data...
Loading historical data...
Loading historical data...
Loading historical data...
Loading historical data...

Documentation

Showing up to 5 results
|